Hawarden, United Kingdom

7:36 PM BST on August 30, 2016 (GMT +0100)
Hawarden

Weather History for EGNR - January, 2013

Change the Weather History Date:

Wednesday, January 9, 2013

  Actual Average (EGGP) Record (EGGP)
Temperature  
Mean Temperature 38 °F -  
Max Temperature 44 °F 44 °F 57 °F (1998)
Min Temperature 29 °F 35 °F 30 °F (2000)
Degree Days  
Heating Degree Days 27    
Moisture  
Dew Point 36 °F    
Average Humidity 99    
Maximum Humidity 100    
Minimum Humidity 93    
Precipitation  
Precipitation 0.00 in - - ()
Sea Level Pressure  
Sea Level Pressure 30.19 in    
Wind  
Wind Speed 1 mph ()    
Max Wind Speed 6 mph    
Max Gust Speed -    
Visibility 5.2 miles    
Events Fog    
Averages and records for this station are not official NWS values.
T = Trace of Precipitation, MM = Missing Value Source: Averaged Metar Reports

Daily Weather History Graph

Daily Weather History Graph

Search for Another Location

Airport or City:

Trip Planner

Search our weather history database for the weather conditions in past years. The results will help you decide how hot, cold, wet, or windy it might be!

Date:

Astronomy

Jan. 09, 2013 Rise Set
Actual Time 8:23 AM GMT 4:15 PM GMT
Civil Twilight 7:41 AM GMT 4:56 PM GMT
Nautical Twilight 6:57 AM GMT 5:41 PM GMT
Astronomical Twilight 6:15 AM GMT 6:23 PM GMT
Moon 5:47 AM GMT (1/9) 2:01 PM GMT (1/9)
Length of Visible Light 9h 15m
Length of Day
7h 52m
Waning Crescent, 8% of the Moon is Illuminated
Jan 9
Waning Crescent
Jan 11
New
Jan 18
First Quarter
Jan 27
Full
Feb 3
Last Quarter

Hourly Weather History & Observations

Time (GMT) Temp. Windchill Dew Point Humidity Pressure Visibility Wind Dir Wind Speed Gust Speed Precip Events Conditions
2:50 AM 39 °F - 38 °F 95% 30.22 in 8 mi West 3.5 mph - -   Scattered Clouds
5:50 AM 33 °F - 33 °F 98% 30.22 in 5 mi Calm Calm - -   Mist
6:20 AM 32.0 °F - 32.0 °F 100% 30.21 in 6.2 mi Calm Calm - N/A Fog Shallow Fog
7:20 AM 32.0 °F - 32.0 °F 100% 30.21 in 6.2 mi Calm Calm - N/A Fog Shallow Fog
7:50 AM 32.0 °F - 32.0 °F 100% 30.21 in 6.2 mi Calm Calm - N/A Fog Partly Cloudy
8:20 AM - - - N/A% 30.21 in 6.2 mi Variable 1.2 mph - N/A Fog Shallow Fog
8:50 AM 33 °F - 33 °F 99% 30.23 in 4 mi SSE 1.2 mph - -   Mist
8:50 AM 32.0 °F - 32.0 °F 100% 30.21 in 6.2 mi Calm Calm - N/A Fog Shallow Fog
9:20 AM 32.0 °F - 32.0 °F 100% 30.21 in 6.2 mi Calm Calm - N/A   Partly Cloudy
9:50 AM 33.8 °F - 33.8 °F 100% 30.21 in 6.2 mi Calm Calm - N/A   Partly Cloudy
10:20 AM 35.6 °F - 35.6 °F 100% 30.21 in 6.2 mi Calm Calm - N/A   Partly Cloudy
10:50 AM 37.4 °F - 37.4 °F 100% 30.21 in 6.2 mi Variable 2.3 mph - N/A   Partly Cloudy
11:20 AM 37.4 °F - 37.4 °F 100% 30.21 in 6.2 mi Variable 2.3 mph - N/A Fog Partly Cloudy
11:50 AM 40 °F - 40 °F 98% 30.22 in 7 mi SE 3.5 mph - -  
11:50 AM 39.2 °F - 39.2 °F 100% 30.21 in 6.2 mi Variable 2.3 mph - N/A   Partly Cloudy
1:50 PM 44.6 °F - 42.8 °F 93% 30.18 in 6.2 mi Variable 2.3 mph - N/A   Partly Cloudy
2:50 PM 40 °F - 40 °F 100% 30.19 in 7 mi SE 3.5 mph - -  
2:50 PM 41.0 °F - 41.0 °F 100% 30.18 in 6.2 mi Variable 2.3 mph - N/A Fog Partly Cloudy
3:20 PM 39.2 °F - 39.2 °F 100% 30.18 in 6.2 mi Variable 1.2 mph - N/A Fog Unknown
3:50 PM 39.2 °F - 39.2 °F 100% 30.18 in 6.2 mi Calm Calm - N/A Fog Shallow Fog
4:20 PM 37.4 °F - 37.4 °F 100% 30.18 in 5.0 mi Calm Calm - N/A   Partly Cloudy
5:20 PM 33.8 °F - 33.8 °F 100% 30.15 in 0.5 mi Calm Calm - N/A Fog Patches of Fog
5:50 PM 37.4 °F - 37.4 °F 100% 30.15 in 2.2 mi Calm Calm - N/A   Scattered Clouds
6:20 PM 39.2 °F 37.0 °F 39.2 °F 100% 30.15 in 2.8 mi Variable 3.5 mph - N/A   Scattered Clouds
7:20 PM 37.4 °F 32.8 °F 37.4 °F 100% 30.15 in 5.0 mi SSW 5.8 mph - N/A   Partly Cloudy
7:50 PM 35.6 °F 32.8 °F 35.6 °F 100% 30.15 in 5.0 mi Variable 3.5 mph - N/A   Partly Cloudy
8:20 PM 35.6 °F 32.8 °F 35.6 °F 100% 30.15 in 5.0 mi Variable 3.5 mph - N/A   Partly Cloudy
8:50 PM 33 °F - 33 °F 100% 30.15 in 1 mi South 3.5 mph - - Fog Fog
8:50 PM 33.8 °F 30.8 °F 33.8 °F 100% 30.12 in 5.0 mi Variable 3.5 mph - N/A   Partly Cloudy
11:50 PM 29 °F - 29 °F 99% 30.10 in 1 mi South 2.3 mph - - Fog Fog